Simultaneous Nadir Overpasses (SNOs) Predictions

Prediction of SNOs between AQUA and METOP-B Satellite Orbit:

Table of predicted SNOs for the next 14.0 days since TLE Epoch: 10/14/2016
Index Date (AQUA) Time (AQUA) Lat,Lon (AQUA) SZA (AQUA ) Date (METOP-B) Time (METOP-B) Lat,Lon (METOP-B) SZA (METOP-B ) Distance(km) Time Diff (sec)
1 10/17/2016 02:43:48 -73.20, -45.57 97.52 10/17/2016 02:42:39 -73.16, -47.55 97.54 63.96 69
2 10/17/2016 03:33:26 73.74, 120.95 83.04 10/17/2016 03:33:08 73.72, 121.04 83.02 3.66 18
3 10/17/2016 04:22:52 -73.78, -71.49 96.91 10/17/2016 04:23:48 -73.79, -71.45 96.90 2.12 56
4 10/19/2016 22:18:08 -73.52, 20.23 96.18 10/19/2016 22:16:56 -73.48, 19.57 96.21 21.14 72
5 10/19/2016 23:07:40 73.74,-172.62 84.06 10/19/2016 23:07:31 73.73,-172.51 84.06 3.53 9
6 10/19/2016 23:57:06 -73.78, -5.05 95.90 10/19/2016 23:58:12 -73.76, -5.12 95.91 2.88 66
7 10/22/2016 17:52:24 -73.64, 86.40 95.06 10/22/2016 17:51:16 -73.64, 86.35 95.06 1.59 68
8 10/22/2016 18:41:53 73.71,-106.12 85.03 10/22/2016 18:41:55 73.70,-106.19 85.01 3.15 2
9 10/22/2016 19:31:21 -73.85, 61.23 94.83 10/22/2016 19:32:34 -73.82, 61.43 94.86 6.93 73
10 10/25/2016 13:26:36 -73.63, 152.87 94.10 10/25/2016 13:25:38 -73.65, 152.78 94.07 3.59 58
11 10/25/2016 14:16:05 73.71, -39.66 86.00 10/25/2016 14:16:17 73.70, -39.77 85.99 3.47 12
12 10/25/2016 15:05:40 -74.20, 126.88 93.49 10/25/2016 15:06:49 -74.17, 128.71 93.53 55.45 69
13 10/28/2016 09:00:49 -73.64,-140.70 93.14 10/28/2016 09:00:01 -73.66,-140.80 93.12 3.41 48
14 10/28/2016 09:50:18 73.72, 26.76 86.96 10/28/2016 09:50:39 73.75, 26.76 86.99 3.21 21




NCC Satellite Simultaneous Nadir Overpasses (SNOs) Prediction Service
